Location: Unspecified
(0.0000°N, 0.0000°E)
Time: 20:37:07
(UTC+00:00)

Tiangong 2 - Pass Details

Date: 13 December 2017
Orbit: 387 x 389 km, 42.8° (Epoch: 18 December)

Event Time Altitude Azimuth Distance (km) Brightness Sun altitude
Rises 19:33:53 0° 245° (WSW) 2,258 6.5 -22.7°
Reaches altitude 10° 19:36:13 10° 260° (W) 1,402 4.9 -23.3°
Enters shadow 19:38:16 22° 299° (WNW) 899 3.2 -23.7°
